Flag for U.S.A. Weather past 2 weeks in Anderson, South Carolina, U.S.A.

Now
37 °F

Sunny.


Feels Like: 33 °F
Forecast: 34 / 56 °F
Wind: 5 mph from Southwest

Location: Anderson County Airport

Current Time: Jan 25, 2015 at 10:02:13 AM

Latest Report: Jan 25, 2015 at 8:56 AM


Visibility: 10 mi

Pressure: 29.94 "Hg

Humidity: 79%

Dew point: 31 °F

Location of AndersonLocation

Historic Weather in Anderson — Graph

°F

Anderson temperature yesterday

Maximum temperature yesterday: 53 °F (at 2:56 PM)
Minimum temperature yesterday: 39 °F (at 12:56 AM)
Average temperature yesterday: 44 °F

Past Weeks' High & Low Weather Summary

 TemperatureHumidityPressure
High67 °F (Jan 20, 2:56 PM)100% (Jan 12, 12:56 PM)30.61 "Hg (Jan 12, 12:56 PM)
Low23 °F (Jan 11, 12:56 AM)18% (Jan 19, 2:56 PM)29.64 "Hg (Jan 24, 6:56 AM)
Average43 °F69%30.15 "Hg
* Reported Jan 10 8:56 AM — Jan 25 8:56 AM, Anderson, Weather by CustomWeather, © 2014

Note: Actual official high and low records may vary slightly from our data, if they occured in-between our weather recording intervals... More about our weather records

Advertising

Anderson weather history for previous 24 hours

 ConditionsComfort  
Time TempWeatherWind HumidityBarometerVisibility
8:56 AM
Jan 25
37 °FSunny.5 mph79%29.94 "Hg10 mi
7:56 AM30 °FSunny.5 mph89%29.95 "Hg10 mi
6:56 AM34 °FClear.3 mph76%29.93 "Hg10 mi
5:56 AM36 °FClear.No wind73%29.91 "Hg10 mi
4:56 AM36 °FClear.8 mph73%29.92 "Hg10 mi
3:56 AM39 °FClear.10 mph65%29.91 "Hg10 mi
2:56 AM37 °FClear.9 mph70%29.91 "Hg10 mi
1:56 AM39 °FClear.7 mph62%29.90 "Hg10 mi
12:56 AM38 °FClear.9 mph63%29.90 "Hg10 mi
11:56 PM
Jan 24
40 °FClear.8 mph55%29.90 "Hg10 mi
10:56 PM41 °FClear.9 mph53%29.88 "Hg10 mi
9:56 PM41 °FClear.12 mph53%29.88 "Hg10 mi
8:56 PM42 °FClear.10 mph53%29.88 "Hg10 mi
7:56 PM43 °FClear.9 mph47%29.87 "Hg10 mi
6:56 PM45 °FClear.14 mph40%29.85 "Hg10 mi
5:56 PM47 °FClear.12 mph36%29.82 "Hg10 mi
4:56 PM51 °FSunny.16 mph32%29.78 "Hg10 mi
3:56 PM52 °FSunny.17 mph34%29.77 "Hg10 mi
2:56 PM53 °FSunny.15 mph35%29.75 "Hg10 mi
1:56 PM52 °FSunny.16 mph41%29.74 "Hg10 mi
12:56 PM52 °FSunny.17 mph49%29.75 "Hg10 mi
11:56 AM50 °FSunny.15 mph59%29.76 "Hg10 mi
10:56 AM48 °FSunny.18 mph63%29.74 "Hg10 mi
Weather by CustomWeather, © 2014

See weather overviewHow to use our weather pages